Location: Kawakawa
(35.3830°S, 174.0670°E)
Time: 20:08:39
(UTC+13:00)

Altair - Pass Details

Date: 06 December 2019
Orbit: 1502 x 1682 km, 47.2° (Epoch: 27 January)

Event Time Altitude Azimuth Distance (km) Brightness Sun altitude
Rises 19:11:53 0° 239° (WSW) 4,955 11.9 13.3°
Reaches altitude 10° 19:15:16 10° 245° (WSW) 3,962 12.5 12.6°
Maximum altitude 19:24:39 44° 312° (NW) 2,194 8.8 10.8°
Drops below altitude 10° 19:33:49 10° 19° (NNE) 3,859 9.3 9.1°
Sets 19:37:05 0° 25° (NNE) 4,816 9.7 8.5°
